Wind_Speed
8 8 8 8 7 7 8 10 10 11 12 12 12 12 12 11 11 11 10 10 9 8 8 8 8 7 7 7 7 7 7 7 7 7 7 7 7 7 7 7 7 7 7
7 7 7 6 7 7 8 9 10 10 11 12 12 11 11 11 10 10 10 9 9 8 8 7 7 7 7 7 7 7 7 7 7 6 7 6 6 6 6 5 6 6 6
7 7 6 6 6 7 8 9 9 10 11 11 11 11 11 10 10 9 9 9 8 7 7 7 7 6 6 7 7 6 7 7 7 6 6 6 5 5 5 5 5 6 6
6 6 6 6 7 7 8 8 9 10 11 11 11 11 10 10 9 9 8 8 7 7 6 6 6 6 6 6 6 6 6 6 6 6 6 5 5 4 4 4 5 5 6
5 6 6 6 7 7 8 8 9 10 11 11 11 10 10 9 9 8 8 7 7 7 6 6 6 6 5 5 5 6 6 5 5 4 4 4 4 4 4 4 5 5 5
5 6 6 6 7 7 8 8 9 10 10 10 10 10 9 9 8 8 7 7 7 7 6 6 5 5 5 5 5 5 5 4 4 4 4 4 4 4 4 4 5 5 5
5 5 6 6 7 7 8 8 9 9 10 10 10 9 9 8 8 7 7 6 6 6 6 5 5 5 4 4 4 5 4 3 3 4 4 4 4 4 4 4 4 5 5
4 4 5 6 7 8 8 8 9 9 10 9 9 8 8 8 7 6 6 6 5 5 5 5 4 4 3 3 4 4 4 3 3 3 3 3 3 3 3 3 3 4 5
3 4 5 6 7 8 8 8 8 9 9 9 9 8 7 7 6 6 5 5 4 4 4 4 4 3 3 3 4 4 3 3 3 2 2 3 3 3 3 3 3 3 4
2 3 5 7 7 8 9 8 8 9 9 9 9 8 7 6 6 5 5 4 4 4 4 4 3 3 3 3 3 3 3 3 2 2 1 2 3 3 3 3 3 3 3
2 3 5 7 7 8 9 9 9 9 9 9 9 8 7 6 5 5 4 4 4 4 3 3 3 3 3 3 3 3 2 2 1 1 1 2 2 3 3 3 3 3 2
2 4 5 7 8 9 10 10 10 10 9 9 9 8 6 6 5 4 4 4 4 3 3 3 3 3 2 2 2 2 2 2 2 1 1 2 2 2 2 2 3 2 2
4 5 6 7 9 10 11 11 11 11 10 10 9 8 7 5 5 4 3 3 3 3 3 3 3 3 2 2 2 2 1 2 1 1 1 1 1 2 2 2 2 2 2
5 6 6 8 9 11 11 12 12 11 10 10 10 9 8 6 5 4 4 3 3 3 3 2 2 2 2 2 2 2 1 1 1 1 1 1 1 2 2 2 2 2 2
6 6 7 9 10 11 11 12 13 13 11 11 11 9 9 8 6 5 4 4 3 3 3 2 2 2 1 1 2 1 1 1 1 1 1 1 1 2 2 3 3 3 2
7 7 9 10 11 12 12 13 13 13 12 12 12 10 10 9 8 6 5 4 4 4 4 3 2 2 1 1 1 1 1 1 1 1 0 0 0 1 2 3 3 3 3
9 8 9 11 12 12 13 13 13 13 13 12 12 11 11 10 10 8 6 6 5 5 5 4 3 2 1 1 1 2 1 2 1 1 1 0 0 1 1 2 2 3 4
10 10 10 12 13 13 14 14 14 14 14 13 13 12 12 12 11 10 8 7 7 6 5 5 4 3 2 1 1 2 1 2 2 1 1 1 0 1 1 1 2 3 3
10 11 11 12 13 14 15 15 14 15 15 14 14 15 14 14 13 12 10 9 8 7 6 6 5 4 4 3 2 2 2 2 2 2 1 1 1 1 1 2 2 3 3
11 12 12 12 13 14 14 15 15 15 16 16 16 16 16 16 14 14 12 11 9 8 8 7 6 6 5 5 4 3 3 2 2 2 2 1 1 2 2 3 3 3 3
10 11 12 12 13 14 15 16 17 17 17 17 17 16 16 17 16 15 14 13 11 10 9 8 7 7 6 6 5 5 4 3 3 3 2 2 2 3 3 4 4 4 4
11 12 12 12 13 14 15 16 17 18 18 18 18 17 17 17 16 16 15 14 13 12 10 10 9 8 8 7 7 6 6 5 4 4 4 4 4 4 4 4 5 5 5
12 12 12 12 13 14 14 16 17 18 19 18 18 18 18 17 17 17 17 15 14 13 13 12 11 11 10 9 8 8 7 7 6 6 6 5 5 6 5 5 5 5 6
11 11 12 12 12 14 15 15 17 18 18 19 19 19 19 19 19 18 17 16 15 15 14 13 13 12 11 11 10 9 9 9 8 7 7 7 7 7 7 7 7 6 6
11 12 13 13 13 14 15 14 15 16 17 19 20 20 20 20 20 20 19 18 16 15 14 14 14 14 13 12 12 12 11 11 10 10 10 10 9 9 9 9 9 9 9
12 12 12 13 13 13 13 14 14 15 17 18 19 20 20 20 21 21 21 20 18 17 15 15 16 15 15 14 14 14 13 13 13 12 12 12 12 11 11 11 11 12 12
Wind_Direction
114 113 114 119 123 124 127 128 125 121 115 110 106 102 98 95 93 90 90 91 93 94 94 94 95 93 94 95 96 98 100 101 103 105 107 109 114 113 113 115 117 117 117
121 123 124 127 130 132 133 133 129 123 119 114 109 105 101 97 94 91 90 91 93 95 96 96 98 97 97 97 97 100 102 104 104 102 106 109 113 112 113 112 117 118 120
128 129 133 138 142 142 140 138 134 127 123 118 113 109 105 100 95 91 91 92 94 96 96 97 100 101 101 99 100 102 104 106 103 102 103 104 108 112 116 118 124 123 124
138 136 138 144 150 151 147 141 136 131 127 122 117 112 107 102 97 94 93 94 96 98 98 100 104 105 106 105 105 106 107 108 105 104 106 107 109 113 115 124 134 132 130
145 146 145 148 155 159 154 147 142 137 132 126 121 115 111 106 101 97 97 97 97 98 98 101 106 107 108 108 107 111 109 109 112 113 113 116 117 122 124 130 140 141 138
150 153 155 156 158 160 157 152 149 143 138 133 127 121 116 112 106 104 103 101 99 99 99 102 109 110 110 112 112 115 114 112 119 132 134 130 125 129 135 143 147 148 147
157 159 163 167 168 164 161 158 155 149 144 140 134 127 121 116 112 109 107 106 104 103 102 104 109 111 115 121 123 122 121 117 119 133 142 140 133 137 144 154 161 151 151
167 170 174 175 177 173 168 165 161 156 150 147 141 134 126 120 117 115 113 111 107 105 106 102 104 111 120 130 130 123 125 124 122 136 145 148 146 149 153 165 164 154 156
169 186 188 185 181 178 174 172 168 162 158 154 149 143 136 129 124 120 120 119 111 102 100 100 103 108 115 132 138 131 127 129 132 133 151 155 154 154 160 170 169 164 163
183 204 205 197 192 185 181 178 175 170 165 162 157 151 145 138 131 124 125 125 115 107 104 101 103 110 111 128 131 130 133 135 145 138 150 173 175 172 176 179 177 172 174
219 219 217 208 201 194 190 187 184 180 176 173 169 162 155 148 139 132 130 130 123 117 107 97 94 106 115 125 133 139 139 140 152 137 145 171 174 180 186 183 179 175 184
251 237 230 217 208 204 200 197 193 189 186 181 178 175 168 157 146 141 138 137 134 125 110 101 96 97 102 115 136 141 140 141 147 135 131 155 174 180 190 198 191 185 186
261 246 231 221 216 210 207 203 199 197 195 191 187 187 185 174 166 159 151 146 147 139 123 111 103 102 108 118 128 136 137 143 140 139 147 161 186 195 196 201 196 190 191
260 245 235 223 218 212 209 206 204 205 206 202 197 197 198 194 191 186 176 168 163 156 142 126 114 107 112 128 133 122 125 130 152 200 215 203 213 213 208 207 201 195 198
266 253 241 226 224 218 213 209 208 209 211 209 206 205 208 208 207 205 199 192 187 182 178 169 146 135 135 152 154 151 149 163 181 226 227 231 229 221 216 216 214 212 212
266 257 247 230 226 225 219 214 212 211 214 213 212 214 217 217 213 210 212 212 209 204 197 192 190 188 180 177 169 183 192 204 206 212 197 205 210 219 220 219 223 227 229
257 256 250 235 232 230 223 220 217 216 217 218 218 220 223 221 218 214 219 218 215 209 200 196 201 206 212 191 180 186 187 190 180 199 212 225 176 204 230 231 240 243 240
261 262 254 245 238 234 229 224 221 221 223 224 224 226 229 225 223 221 221 222 219 214 210 211 215 219 221 218 203 198 203 191 188 214 225 253 253 211 231 238 251 246 247
263 265 256 248 242 239 232 227 227 227 229 230 231 233 234 230 225 224 226 224 223 221 221 223 222 220 224 231 228 219 219 214 214 220 223 238 257 260 248 246 252 249 250
267 267 262 251 243 240 234 233 233 233 234 235 236 238 239 233 228 225 224 223 225 226 227 229 227 224 229 234 234 234 233 224 232 230 227 231 264 278 267 252 256 259 258
270 268 261 252 245 243 240 240 239 239 239 238 238 239 236 229 228 226 223 222 223 227 230 231 229 227 230 231 233 236 236 232 243 242 239 251 266 278 278 264 261 266 266
271 270 264 252 248 248 244 246 244 244 242 243 242 243 238 229 227 227 226 225 225 228 231 232 231 231 232 233 232 234 236 241 245 245 246 259 272 278 278 271 263 261 263
270 271 264 254 253 255 251 248 247 246 246 247 245 240 234 230 228 226 225 225 226 231 234 233 232 232 234 235 236 237 240 243 247 249 254 264 274 276 274 272 268 266 265
269 269 264 257 261 260 260 254 252 252 248 245 241 236 233 232 228 226 226 227 229 232 237 238 235 233 233 235 236 238 242 244 250 253 258 265 272 275 273 265 263 267 270
269 270 266 263 263 264 259 256 257 254 249 245 240 237 234 233 231 228 228 229 231 235 238 238 235 235 235 238 238 240 245 247 250 252 258 263 268 271 271 266 263 264 268
269 269 266 265 265 263 257 259 263 261 252 246 242 238 235 233 232 230 230 230 232 235 238 238 237 236 237 240 241 244 248 250 252 256 261 262 264 267 269 268 267 266 266
Height
5891 5891 5891 5892 5893 5893 5894 5894 5894 5894 5894 5895 5895 5895 5895 5896 5896 5895 5895 5895 5896 5896 5896 5896 5896 5896 5896 5896 5895 5895 5895 5895 5895 5895 5895 5895 5895 5896 5895 5895 5895 5895 5895
5892 5892 5892 5893 5893 5894 5894 5895 5895 5895 5895 5895 5896 5896 5896 5897 5897 5896 5896 5896 5897 5897 5897 5897 5897 5897 5897 5897 5896 5896 5896 5896 5896 5896 5896 5896 5896 5896 5896 5896 5896 5896 5896
5892 5892 5892 5893 5894 5894 5895 5895 5896 5896 5896 5896 5896 5897 5897 5897 5897 5897 5897 5897 5897 5898 5898 5898 5898 5898 5897 5897 5897 5897 5897 5897 5897 5897 5897 5897 5897 5897 5897 5897 5897 5897 5897
5892 5892 5893 5893 5894 5895 5895 5896 5896 5896 5897 5897 5897 5897 5898 5898 5898 5898 5898 5898 5898 5898 5898 5898 5898 5898 5898 5898 5898 5898 5898 5898 5898 5898 5898 5898 5898 5898 5898 5898 5898 5898 5898
5893 5893 5893 5894 5894 5895 5896 5896 5896 5897 5897 5897 5897 5898 5898 5898 5898 5899 5899 5899 5899 5899 5899 5899 5899 5899 5899 5899 5898 5898 5899 5899 5899 5899 5899 5898 5898 5899 5899 5899 5899 5899 5899
5893 5893 5893 5894 5895 5895 5896 5896 5897 5897 5897 5898 5898 5898 5899 5899 5899 5899 5900 5900 5900 5900 5900 5899 5899 5899 5899 5899 5899 5899 5899 5899 5899 5899 5899 5899 5899 5899 5899 5899 5899 5900 5900
5892 5893 5893 5894 5895 5895 5896 5897 5897 5898 5898 5898 5899 5899 5899 5900 5900 5900 5900 5900 5900 5900 5900 5900 5900 5900 5899 5899 5900 5900 5900 5900 5900 5900 5900 5900 5900 5900 5900 5900 5900 5900 5901
5892 5893 5893 5894 5894 5895 5896 5897 5897 5898 5898 5899 5899 5900 5900 5900 5900 5901 5901 5901 5901 5901 5901 5900 5900 5900 5900 5900 5900 5900 5900 5900 5900 5900 5900 5900 5900 5900 5901 5900 5900 5901 5901
5892 5893 5893 5893 5894 5895 5896 5897 5897 5898 5898 5899 5900 5900 5900 5900 5901 5901 5901 5901 5901 5901 5901 5901 5900 5900 5900 5900 5900 5900 5901 5901 5901 5901 5900 5900 5900 5901 5901 5901 5901 5901 5901
5892 5892 5892 5893 5893 5894 5895 5896 5897 5898 5899 5899 5900 5900 5900 5900 5901 5901 5901 5901 5901 5901 5901 5901 5901 5901 5900 5900 5901 5901 5901 5901 5901 5901 5901 5901 5901 5901 5901 5901 5901 5901 5902
5891 5891 5892 5892 5893 5894 5895 5896 5896 5897 5898 5899 5899 5900 5900 5901 5901 5901 5901 5901 5901 5901 5901 5901 5901 5901 5901 5901 5901 5901 5902 5902 5901 5901 5901 5901 5901 5901 5901 5901 5901 5902 5902
5890 5890 5891 5891 5892 5893 5894 5895 5896 5897 5897 5898 5899 5900 5900 5900 5901 5901 5901 5901 5901 5901 5902 5902 5902 5902 5901 5901 5901 5901 5902 5902 5902 5901 5901 5901 5901 5901 5901 5901 5901 5902 5902
5889 5889 5889 5890 5891 5892 5893 5894 5895 5896 5896 5897 5898 5899 5900 5900 5900 5901 5901 5901 5901 5901 5901 5902 5902 5902 5902 5902 5902 5902 5902 5902 5902 5902 5902 5901 5901 5901 5901 5901 5902 5902 5902
5888 5888 5888 5889 5889 5890 5891 5893 5894 5895 5896 5896 5897 5898 5899 5900 5900 5901 5901 5901 5901 5901 5901 5902 5902 5902 5902 5902 5902 5902 5902 5902 5902 5902 5902 5901 5901 5901 5901 5902 5902 5902 5902
5886 5886 5887 5887 5888 5889 5890 5891 5892 5894 5895 5895 5896 5897 5898 5899 5900 5900 5900 5901 5901 5901 5901 5901 5902 5902 5902 5902 5902 5902 5902 5902 5902 5902 5902 5901 5901 5901 5901 5902 5902 5902 5902
5884 5885 5885 5885 5886 5887 5888 5889 5891 5892 5893 5894 5895 5896 5897 5898 5899 5899 5900 5900 5901 5901 5901 5901 5902 5902 5902 5902 5902 5902 5902 5902 5902 5902 5902 5901 5901 5901 5901 5902 5902 5902 5902
5882 5882 5883 5883 5884 5885 5887 5888 5889 5890 5891 5892 5894 5895 5896 5897 5898 5898 5899 5900 5900 5900 5901 5901 5901 5902 5902 5902 5902 5901 5901 5902 5902 5902 5902 5902 5901 5901 5901 5901 5902 5902 5902
5880 5880 5880 5881 5882 5883 5885 5886 5887 5888 5890 5891 5892 5893 5894 5895 5896 5897 5898 5899 5899 5899 5900 5900 5901 5901 5901 5901 5901 5901 5901 5901 5901 5902 5902 5902 5901 5901 5901 5901 5901 5901 5902
5878 5878 5878 5879 5880 5881 5882 5884 5885 5886 5888 5889 5890 5891 5892 5893 5894 5895 5896 5897 5898 5899 5899 5899 5900 5900 5901 5901 5901 5901 5901 5901 5901 5901 5901 5901 5901 5901 5901 5901 5901 5901 5901
5875 5875 5875 5876 5877 5878 5879 5881 5883 5884 5885 5886 5887 5888 5890 5891 5892 5893 5894 5895 5896 5897 5898 5898 5899 5900 5900 5900 5900 5901 5901 5901 5901 5901 5901 5901 5901 5901 5901 5901 5900 5901 5901
5873 5873 5873 5873 5874 5876 5877 5878 5879 5881 5882 5883 5884 5885 5886 5887 5889 5890 5892 5893 5894 5895 5896 5897 5897 5898 5899 5899 5900 5900 5900 5900 5900 5900 5900 5901 5900 5900 5900 5900 5900 5900 5900
5870 5870 5870 5871 5871 5872 5874 5875 5876 5877 5878 5880 5881 5882 5883 5884 5886 5887 5889 5891 5892 5893 5894 5895 5896 5897 5897 5898 5898 5899 5900 5900 5900 5900 5900 5900 5900 5900 5899 5899 5899 5899 5899
5868 5867 5867 5868 5868 5869 5870 5871 5872 5874 5875 5876 5877 5878 5879 5881 5883 5884 5886 5888 5889 5891 5892 5892 5894 5895 5896 5896 5897 5898 5898 5899 5899 5899 5899 5899 5899 5899 5898 5898 5898 5898 5898
5865 5865 5864 5865 5865 5867 5867 5868 5869 5870 5871 5872 5873 5874 5875 5877 5879 5881 5883 5885 5886 5888 5889 5890 5891 5892 5893 5894 5895 5896 5897 5897 5897 5898 5898 5898 5897 5897 5897 5897 5897 5897 5897
5862 5862 5862 5862 5862 5863 5864 5865 5865 5866 5867 5867 5868 5870 5871 5874 5876 5878 5880 5882 5884 5885 5886 5887 5888 5889 5891 5892 5893 5894 5894 5895 5895 5896 5896 5896 5896 5896 5895 5895 5895 5895 5895
5860 5859 5859 5859 5860 5860 5861 5861 5862 5862 5862 5863 5864 5866 5868 5870 5872 5874 5876 5878 5880 5882 5883 5884 5885 5887 5888 5889 5890 5891 5892 5893 5893 5894 5894 5894 5894 5894 5893 5893 5893 5893 5893